Regional Weather Roundup
Issued by NWS Midland/Odessa, TX

Skip options and go directly to product.
Home | Oldest Version | Next Version | Current Version | All | Text Only | Save Text | Print | Product List | Glossary On

Skip product version selection by date and time.   
110
ASUS44 KMAF 181701
RWRMAF
MIDLAND AREA WEATHER ROUNDUP
NATIONAL WEATHER SERVICE MIDLAND TX
1200 PM CDT SAT APR 18 2015

...IN SOUTHWEST TEXAS AND SOUTHEAST NEW MEXICO...

CITY           SKY/WX    TMP DP  RH WIND       PRES   REMARKS
ALPINE         SUNNY     69  32  25 E3        30.09S
ANDREWS        FAIR      72  24  17 W15       29.96F
ARTESIA        SUNNY     66  27  22 S9        29.97F
BIG SPRING     SUNNY     74  42  32 SW8       29.97F
CARLSBAD       SUNNY     68  25  19 CALM      29.96F
DRYDEN           N/A     71  59  65 SW6       29.94F
FORT STOCKTON  SUNNY     74  30  19 NW9       29.98F
GUAD PASS      NOT AVBL
HOBBS          SUNNY     66  28  24 S8        29.99S
MARFA          SUNNY     68  19  15 W12G21    30.09R
MIDLAND AIRPK  SUNNY     73  30  19 SW7       29.96S
MIDLAND INTL   SUNNY     73  40  30 SW10      29.95F
ODESSA         SUNNY     73  33  23 W17       29.97S
PECOS          SUNNY     72  25  17 SW3       29.97F
PRESIDIO       FAIR      74  29  19 SW7       30.00S
SEMINOLE       SUNNY     69  26  19 SW12G17   29.98S
SNYDER         SUNNY    N/A N/A N/A SW8       29.94F
WINK           SUNNY     73  18  12 W9        29.95F
$$
...OTHER STATIONS IN TEXAS...

CITY           SKY/WX    TMP DP  RH WIND       PRES   REMARKS
ABILENE        MOSUNNY   74  62  66 VRB6      29.91F
AMARILLO       SUNNY     68  26  20 SW16      29.90F
AUSTIN         CLOUDY    70  66  87 N6        29.92F
BROWNSVILLE    CLOUDY    75  72  90 S8        29.81F
CORPUS CHRISTI LGT RAIN  72  68  87 NE13      29.86F
DALLAS FTW     PTSUNNY   74  63  68 S6        29.90S
DEL RIO        MOSUNNY   75  63  66 CALM      29.90S
EL PASO        MOSUNNY   66  16  14 W16       30.04R
HOUSTON INT    CLOUDY    74  69  85 SE6       29.88F
LUBBOCK        MOSUNNY   69  26  20 CALM      29.93F
SAN ANGELO     SUNNY     74  61  63 W5        29.92F
SAN ANTONIO    CLOUDY    71  65  81 NE9       29.90F
WACO           PTSUNNY   73  65  75 CALM      29.92S
WICHITA FALLS  NOT AVBL
$$
...OTHER LOCATIONS IN NEW MEXICO...

CITY           SKY/WX    TMP DP  RH WIND       PRES   REMARKS
ALAMAGORDO     MOSUNNY   64  19  17 S10       30.02F
ALBUQUERQUE    PTSUNNY   50  29  44 N10       30.02F
CANNON AFB     NOT AVBL
CLOVIS         SUNNY     64  28  25 W17G26    29.93F
HOLLOMAN AFB   NOT AVBL
ROSWELL        SUNNY     67  24  19 S16       29.95F
RUIDOSO        SUNNY     54  21  28 W16G26    30.04F
SANTA FE       PTSUNNY   38  32  79 CALM      30.02R
TRUTH OR CONSE PTSUNNY   63  23  21 W9        29.99F
TUCUMCARI      CLOUDY    57  28  33 W17       29.94R
$$

USA.gov is the U.S. government's official web portal to all federal, state and local government web resources and services.